Location: Ostrava
(49.8330°N, 18.2830°E)
Time: 23:10:25
(UTC+01:00)

Explorer 7 - Visible Passes

Search period start: 24 February 2017 00:00
Search period end: 06 March 2017 00:00
Orbit: 486 x 685 km, 50.3° (Epoch: 23 February)

Date Brightness Start Highest point End Pass type
(mag) Time Alt. Az. Time Alt. Az. Time Alt. Az.
24 Feb 7.3 18:04:45 10° SW 18:09:04 60° SSE 18:13:22 12° ENE visible
24 Feb 7.0 19:45:10 10° W 19:49:44 84° N 19:49:46 84° N visible
24 Feb 10.1 21:25:48 10° WNW 21:26:09 12° WNW 21:26:09 12° WNW visible
25 Feb 7.1 18:10:38 10° WSW 18:15:00 75° SSE 18:19:12 13° E visible
25 Feb 7.1 19:51:10 10° W 19:55:35 81° NW 19:55:35 81° NW visible
25 Feb 10.2 21:31:47 10° WNW 21:31:58 11° WNW 21:31:58 11° WNW visible
26 Feb 7.1 18:16:34 10° WSW 18:20:59 87° SSE 18:25:00 14° E visible
26 Feb 7.2 19:57:11 10° W 20:01:23 76° WNW 20:01:23 76° WNW visible
27 Feb 7.1 18:22:33 10° W 18:26:59 86° N 18:30:47 16° E visible
27 Feb 7.3 20:03:10 10° W 20:07:10 67° W 20:07:10 67° W visible
28 Feb 7.1 18:28:33 10° W 18:33:00 83° N 18:36:35 17° E visible
28 Feb 7.6 20:09:09 10° WNW 20:12:58 57° WSW 20:12:58 57° WSW visible
01 Mar 7.1 18:34:33 10° W 18:39:00 86° N 18:42:24 19° E visible
01 Mar 7.9 20:15:09 10° WNW 20:18:47 46° WSW 20:18:47 46° WSW visible
02 Mar 7.1 18:40:33 10° W 18:44:59 87° SSW 18:48:14 20° ESE visible
02 Mar 8.3 20:21:11 10° W 20:24:37 36° WSW 20:24:37 36° WSW visible
03 Mar 7.1 18:46:31 10° WNW 18:50:57 75° SSW 18:54:07 20° ESE visible
03 Mar 8.7 20:27:19 10° W 20:30:30 27° SW 20:30:30 27° SW visible
04 Mar 7.4 18:52:29 10° WNW 18:56:53 60° SSW 19:00:03 20° SE visible
04 Mar 9.2 20:33:37 10° W 20:36:27 20° SW 20:36:27 20° SW visible
05 Mar 7.9 18:58:30 10° W 19:02:46 46° SSW 19:06:04 17° SE visible
05 Mar 9.6 20:40:21 10° WSW 20:42:28 14° SW 20:42:28 14° SW visible
